LZB7060 HEAL-LBSF

Flight info

Callsign LZB7060
Flight time 1h 55m
Altitude 36000
Route NOMRO T55 TANSA UL617 SIT DCT RIGRO UN133 ATFIR DCT VANET
Aircraft A320/M-SDE3FGHIRWY/LB1

Departure

Time 2026-05-06 07:42
Airport El Alamein International Airport (HEAL)

Arrival

Time 2026-05-06 09:37
Airport Sofia Airport (LBSF)
Time Latitude Longitude Altitude Speed Heading
2026-05-06 07:26 30.92948 28.46211 155 ft 0 kts 40°
2026-05-06 07:31 30.92944 28.46208 155 ft 2 kts 40°
2026-05-06 07:32 30.92934 28.46195 155 ft 2 kts 63°
2026-05-06 07:32 30.92929 28.46179 155 ft 2 kts 86°
2026-05-06 07:32 30.92931 28.46161 155 ft 2 kts 111°
2026-05-06 07:32 30.92936 28.46151 155 ft 0 kts 128°
2026-05-06 07:33 30.92941 28.46145 155 ft 0 kts 131°
2026-05-06 07:33 30.92940 28.46145 155 ft 0 kts 131°
2026-05-06 07:35 30.92938 28.46149 155 ft 1 kts 130°
2026-05-06 07:35 30.92924 28.46167 155 ft 4 kts 129°
2026-05-06 07:35 30.92902 28.46198 155 ft 5 kts 130°
2026-05-06 07:35 30.92873 28.46236 155 ft 7 kts 130°
2026-05-06 07:36 30.92837 28.46283 155 ft 8 kts 130°
2026-05-06 07:36 30.92783 28.46303 155 ft 9 kts 199°
2026-05-06 07:36 30.92723 28.46263 155 ft 10 kts 218°
2026-05-06 07:36 30.92665 28.46204 155 ft 11 kts 221°
2026-05-06 07:37 30.92601 28.46140 154 ft 12 kts 220°
2026-05-06 07:37 30.92527 28.46087 155 ft 12 kts 184°
2026-05-06 07:37 30.92452 28.46140 154 ft 13 kts 131°
2026-05-06 07:37 30.92389 28.46224 154 ft 14 kts 130°
2026-05-06 07:38 30.92316 28.46324 154 ft 17 kts 130°
2026-05-06 07:38 30.92230 28.46438 154 ft 19 kts 131°
2026-05-06 07:38 30.92138 28.46557 153 ft 20 kts 132°
2026-05-06 07:38 30.92059 28.46670 153 ft 16 kts 133°
2026-05-06 07:39 30.91977 28.46778 153 ft 19 kts 130°
2026-05-06 07:39 30.91881 28.46907 152 ft 22 kts 130°
2026-05-06 07:39 30.91777 28.47048 152 ft 23 kts 131°
2026-05-06 07:39 30.91663 28.47200 152 ft 25 kts 130°
2026-05-06 07:40 30.91542 28.47360 151 ft 25 kts 139°
2026-05-06 07:40 30.91410 28.47458 151 ft 16 kts 114°
2026-05-06 07:40 30.91446 28.47492 151 ft 8 kts 315°
2026-05-06 07:40 30.91486 28.47439 151 ft 8 kts 310°
2026-05-06 07:41 30.91496 28.47425 151 ft 0 kts 310°
2026-05-06 07:41 30.91591 28.47296 152 ft 56 kts 310°
2026-05-06 07:41 30.91997 28.46747 153 ft 120 kts 311°
2026-05-06 07:41 30.92655 28.45853 258 ft 161 kts 310°
2026-05-06 07:42 30.93395 28.44870 785 ft 166 kts 310°
2026-05-06 07:42 30.94145 28.43838 1439 ft 169 kts 310°
2026-05-06 07:42 30.94915 28.42820 2085 ft 171 kts 319°
2026-05-06 07:42 30.95901 28.41971 2495 ft 184 kts 332°
2026-05-06 07:43 30.97057 28.41201 2891 ft 201 kts 330°
2026-05-06 07:43 30.98286 28.40269 3280 ft 220 kts 329°
2026-05-06 07:43 30.99616 28.39236 3672 ft 240 kts 328°
2026-05-06 07:43 31.01037 28.38116 4233 ft 254 kts 327°
2026-05-06 07:44 31.02498 28.36954 5049 ft 257 kts 327°
2026-05-06 07:44 31.03967 28.35781 5929 ft 258 kts 327°
2026-05-06 07:44 31.05443 28.34603 6803 ft 259 kts 327°
2026-05-06 07:44 31.06932 28.33417 7623 ft 262 kts 327°
2026-05-06 07:45 31.08434 28.32219 8424 ft 265 kts 326°
2026-05-06 07:45 31.09956 28.31004 9211 ft 269 kts 326°
2026-05-06 07:45 31.11493 28.29782 10014 ft 271 kts 325°
2026-05-06 07:45 31.13056 28.28540 10711 ft 278 kts 325°
2026-05-06 07:46 31.14708 28.27224 11116 ft 295 kts 325°
2026-05-06 07:46 31.16444 28.25836 11456 ft 313 kts 325°
2026-05-06 07:46 31.18303 28.24348 11769 ft 331 kts 325°
2026-05-06 07:46 31.20225 28.22807 12235 ft 342 kts 325°
2026-05-06 07:47 31.22195 28.21228 12935 ft 346 kts 324°
2026-05-06 07:47 31.24191 28.19629 13625 ft 349 kts 324°
2026-05-06 07:47 31.26176 28.18036 14289 ft 352 kts 324°
2026-05-06 07:47 31.28212 28.16399 14948 ft 356 kts 324°
2026-05-06 07:48 31.30240 28.14768 15602 ft 359 kts 324°
2026-05-06 07:48 31.32321 28.13095 16240 ft 362 kts 324°
2026-05-06 07:48 31.34396 28.11427 16850 ft 366 kts 324°
2026-05-06 07:48 31.36493 28.09739 17449 ft 369 kts 324°
2026-05-06 07:49 31.38605 28.08038 18049 ft 372 kts 324°
2026-05-06 07:49 31.40767 28.06297 18647 ft 375 kts 324°
2026-05-06 07:49 31.42901 28.04576 19203 ft 378 kts 324°
2026-05-06 07:49 31.45085 28.02814 19764 ft 381 kts 324°
2026-05-06 07:50 31.47298 28.01071 20306 ft 385 kts 326°
2026-05-06 07:50 31.49618 27.99494 20806 ft 390 kts 330°
2026-05-06 07:50 31.52064 27.98118 21309 ft 395 kts 334°
2026-05-06 07:50 31.54632 27.96900 21809 ft 399 kts 336°
2026-05-06 07:51 31.57229 27.95720 22295 ft 403 kts 336°
2026-05-06 07:51 31.59846 27.94538 22785 ft 406 kts 336°
2026-05-06 07:51 31.62486 27.93343 23246 ft 409 kts 335°
2026-05-06 07:51 31.65146 27.92137 23699 ft 412 kts 335°
2026-05-06 07:52 31.67863 27.90902 24170 ft 415 kts 335°
2026-05-06 07:52 31.70542 27.89683 24626 ft 417 kts 335°
2026-05-06 07:52 31.73271 27.88440 25077 ft 419 kts 335°
2026-05-06 07:52 31.75973 27.87209 25506 ft 421 kts 335°
2026-05-06 07:53 31.78732 27.85951 25922 ft 424 kts 335°
2026-05-06 07:53 31.81491 27.84693 26323 ft 426 kts 335°
2026-05-06 07:53 31.84265 27.83428 26704 ft 428 kts 335°
2026-05-06 07:53 31.87016 27.82169 27073 ft 430 kts 335°
2026-05-06 07:54 31.89828 27.80883 27423 ft 432 kts 335°
2026-05-06 07:54 31.92610 27.79604 27753 ft 435 kts 335°
2026-05-06 07:54 31.95457 27.78294 28135 ft 435 kts 335°
2026-05-06 07:54 31.98270 27.77002 28613 ft 434 kts 335°
2026-05-06 07:55 32.01066 27.75716 29097 ft 432 kts 335°
2026-05-06 07:55 32.03860 27.74430 29553 ft 430 kts 335°
2026-05-06 07:55 32.06639 27.73151 29993 ft 429 kts 335°
2026-05-06 07:55 32.09433 27.71864 30399 ft 428 kts 335°
2026-05-06 07:56 32.12221 27.70580 30788 ft 427 kts 335°
2026-05-06 07:56 32.14970 27.69320 31173 ft 427 kts 335°
2026-05-06 07:56 32.17768 27.68036 31548 ft 426 kts 335°
2026-05-06 07:56 32.20533 27.66763 31896 ft 425 kts 335°
2026-05-06 07:57 32.23278 27.65495 32196 ft 425 kts 335°
2026-05-06 07:57 32.26034 27.64222 32416 ft 427 kts 335°
2026-05-06 07:57 32.28801 27.62941 32688 ft 427 kts 335°
2026-05-06 07:57 32.31553 27.61666 33012 ft 425 kts 335°
2026-05-06 07:58 32.34325 27.60380 33356 ft 423 kts 335°
2026-05-06 07:58 32.37051 27.59115 33668 ft 422 kts 335°
2026-05-06 07:58 32.39785 27.57844 33958 ft 420 kts 335°
2026-05-06 07:58 32.42480 27.56591 34217 ft 419 kts 335°
2026-05-06 07:59 32.45217 27.55316 34424 ft 419 kts 335°
2026-05-06 07:59 32.47904 27.54066 34596 ft 419 kts 335°
2026-05-06 07:59 32.50617 27.52801 34742 ft 420 kts 335°
2026-05-06 07:59 32.53350 27.51527 34902 ft 420 kts 335°
2026-05-06 08:00 32.56049 27.50269 35059 ft 420 kts 335°
2026-05-06 08:00 32.58782 27.48993 35188 ft 421 kts 335°
2026-05-06 08:00 32.61498 27.47724 35311 ft 421 kts 335°
2026-05-06 08:00 32.64223 27.46450 35422 ft 422 kts 335°
2026-05-06 08:01 32.66936 27.45181 35541 ft 422 kts 335°
2026-05-06 08:01 32.69683 27.43895 35652 ft 422 kts 335°
2026-05-06 08:01 32.72400 27.42622 35765 ft 423 kts 335°
2026-05-06 08:01 32.75134 27.41335 35861 ft 423 kts 335°
2026-05-06 08:02 32.77873 27.40045 35965 ft 424 kts 335°
2026-05-06 08:02 32.80633 27.38744 36077 ft 424 kts 335°
2026-05-06 08:02 32.86093 27.36169 36088 ft 423 kts 335°
2026-05-06 08:03 32.91587 27.33564 36097 ft 424 kts 334°
2026-05-06 08:03 32.97041 27.30959 36099 ft 423 kts 334°
2026-05-06 08:04 33.02502 27.28362 36091 ft 423 kts 334°
2026-05-06 08:04 33.07975 27.25763 36092 ft 424 kts 334°
2026-05-06 08:05 33.13469 27.23163 36091 ft 424 kts 334°
2026-05-06 08:05 33.18958 27.20566 36095 ft 423 kts 334°
2026-05-06 08:06 33.24397 27.17984 36096 ft 423 kts 334°
2026-05-06 08:06 33.29847 27.15391 36091 ft 422 kts 334°
2026-05-06 08:07 33.35336 27.12773 36099 ft 423 kts 334°
2026-05-06 08:07 33.40769 27.10177 36093 ft 422 kts 334°
2026-05-06 08:08 33.46238 27.07561 36090 ft 422 kts 334°
2026-05-06 08:08 33.51683 27.04952 36098 ft 422 kts 335°
2026-05-06 08:09 33.57106 27.02350 36089 ft 421 kts 334°
2026-05-06 08:09 33.62560 26.99729 36095 ft 421 kts 335°
2026-05-06 08:10 33.67992 26.97116 36101 ft 421 kts 335°
2026-05-06 08:10 33.73416 26.94505 36091 ft 421 kts 335°
2026-05-06 08:11 33.78840 26.91890 36096 ft 421 kts 335°
2026-05-06 08:11 33.84296 26.89255 36088 ft 421 kts 335°
2026-05-06 08:12 33.89692 26.86647 36098 ft 420 kts 335°
2026-05-06 08:12 33.95141 26.84009 36097 ft 419 kts 335°
2026-05-06 08:13 34.00520 26.81322 36091 ft 419 kts 333°
2026-05-06 08:13 34.05989 26.78810 36090 ft 422 kts 340°
2026-05-06 08:14 34.11610 26.76761 36084 ft 421 kts 340°
2026-05-06 08:14 34.17253 26.74706 36089 ft 420 kts 340°
2026-05-06 08:15 34.22838 26.72647 36086 ft 420 kts 340°
2026-05-06 08:15 34.28408 26.70578 36091 ft 420 kts 340°
2026-05-06 08:16 34.33998 26.68496 36093 ft 420 kts 340°
2026-05-06 08:16 34.39565 26.66415 36088 ft 420 kts 340°
2026-05-06 08:17 34.45135 26.64331 36087 ft 420 kts 340°
2026-05-06 08:17 34.50743 26.62230 36088 ft 419 kts 340°
2026-05-06 08:18 34.56293 26.60146 36085 ft 420 kts 339°
2026-05-06 08:18 34.61873 26.58048 36087 ft 419 kts 340°
2026-05-06 08:19 34.67443 26.55951 36085 ft 419 kts 340°
2026-05-06 08:19 34.72989 26.53861 36087 ft 418 kts 340°
2026-05-06 08:20 34.78554 26.51760 36087 ft 418 kts 340°
2026-05-06 08:20 34.84095 26.49665 36087 ft 418 kts 339°
2026-05-06 08:21 34.89684 26.47550 36085 ft 418 kts 339°
2026-05-06 08:21 34.95220 26.45450 36085 ft 418 kts 339°
2026-05-06 08:22 35.00776 26.43341 36086 ft 418 kts 339°
2026-05-06 08:22 35.06341 26.41225 36090 ft 418 kts 340°
2026-05-06 08:23 35.11907 26.39109 36089 ft 418 kts 340°
2026-05-06 08:23 35.17467 26.37004 36089 ft 418 kts 340°
2026-05-06 08:24 35.22993 26.34900 36085 ft 417 kts 339°
2026-05-06 08:24 35.28540 26.32757 36088 ft 416 kts 339°
2026-05-06 08:25 35.34031 26.30635 36088 ft 416 kts 339°
2026-05-06 08:25 35.39565 26.28505 36088 ft 415 kts 339°
2026-05-06 08:26 35.45056 26.26391 36086 ft 416 kts 339°
2026-05-06 08:26 35.50573 26.24269 36087 ft 416 kts 339°
2026-05-06 08:27 35.56076 26.22148 36087 ft 414 kts 339°
2026-05-06 08:27 35.61577 26.20026 36092 ft 413 kts 339°
2026-05-06 08:28 35.67061 26.17908 36087 ft 413 kts 339°
2026-05-06 08:28 35.72537 26.15791 36088 ft 413 kts 339°
2026-05-06 08:29 35.77995 26.13678 36088 ft 413 kts 339°
2026-05-06 08:29 35.83501 26.11541 36088 ft 412 kts 339°
2026-05-06 08:30 35.88953 26.09423 36088 ft 411 kts 340°
2026-05-06 08:30 35.94395 26.07306 36088 ft 412 kts 340°
2026-05-06 08:31 35.99850 26.05181 36088 ft 411 kts 339°
2026-05-06 08:31 36.05293 26.03057 36088 ft 411 kts 340°
2026-05-06 08:32 36.10751 26.00926 36093 ft 410 kts 340°
2026-05-06 08:32 36.16163 25.98820 36089 ft 410 kts 340°
2026-05-06 08:33 36.21617 25.96690 36090 ft 411 kts 340°
2026-05-06 08:33 36.27068 25.94555 36092 ft 410 kts 340°
2026-05-06 08:34 36.35191 25.91363 36091 ft 409 kts 340°
2026-05-06 08:35 36.40591 25.89235 36092 ft 409 kts 340°
2026-05-06 08:35 36.46016 25.87095 36093 ft 409 kts 340°
2026-05-06 08:36 36.51428 25.84959 36091 ft 409 kts 340°
2026-05-06 08:36 36.56874 25.82804 36091 ft 409 kts 340°
2026-05-06 08:37 36.62282 25.80662 36091 ft 408 kts 340°
2026-05-06 08:37 36.67673 25.78523 36091 ft 408 kts 340°
2026-05-06 08:38 36.73090 25.76371 36088 ft 408 kts 340°
2026-05-06 08:38 36.78472 25.74229 36090 ft 408 kts 340°
2026-05-06 08:39 36.83893 25.72066 36089 ft 408 kts 340°
2026-05-06 08:39 36.89300 25.69907 36093 ft 408 kts 340°
2026-05-06 08:40 36.94719 25.67742 36092 ft 409 kts 340°
2026-05-06 08:40 37.00106 25.65586 36095 ft 409 kts 340°
2026-05-06 08:41 37.05518 25.63416 36093 ft 408 kts 340°
2026-05-06 08:41 37.10934 25.61239 36093 ft 408 kts 340°
2026-05-06 08:42 37.16345 25.59077 36089 ft 408 kts 340°
2026-05-06 08:42 37.21815 25.56882 36086 ft 408 kts 340°
2026-05-06 08:43 37.27216 25.54706 36083 ft 409 kts 340°
2026-05-06 08:43 37.32624 25.52523 36081 ft 408 kts 340°
2026-05-06 08:44 37.38027 25.50336 36081 ft 408 kts 340°
2026-05-06 08:44 37.43422 25.48150 36080 ft 408 kts 340°
2026-05-06 08:45 37.48841 25.45953 36079 ft 408 kts 340°
2026-05-06 08:45 37.54233 25.43759 36077 ft 408 kts 340°
2026-05-06 08:46 37.59623 25.41567 36076 ft 408 kts 340°
2026-05-06 08:46 37.65021 25.39368 36074 ft 409 kts 340°
2026-05-06 08:47 37.70430 25.37157 36073 ft 408 kts 340°
2026-05-06 08:47 37.75827 25.34951 36073 ft 409 kts 339°
2026-05-06 08:48 37.81255 25.32704 36073 ft 408 kts 339°
2026-05-06 08:48 37.86645 25.30471 36072 ft 408 kts 339°
2026-05-06 08:49 37.92034 25.28249 36069 ft 408 kts 339°
2026-05-06 08:49 37.97422 25.26028 36069 ft 408 kts 339°
2026-05-06 08:50 38.02801 25.23809 36070 ft 408 kts 339°
2026-05-06 08:50 38.08217 25.21574 36071 ft 407 kts 340°
2026-05-06 08:51 38.13613 25.19350 36070 ft 408 kts 339°
2026-05-06 08:51 38.18998 25.17131 36073 ft 407 kts 340°
2026-05-06 08:52 38.24371 25.14911 36072 ft 408 kts 340°
2026-05-06 08:52 38.29764 25.12673 36071 ft 408 kts 339°
2026-05-06 08:53 38.35151 25.10432 36071 ft 408 kts 339°
2026-05-06 08:53 38.40557 25.08180 36073 ft 407 kts 340°
2026-05-06 08:54 38.45916 25.05945 36068 ft 406 kts 340°
2026-05-06 08:54 38.51282 25.03702 36072 ft 406 kts 340°
2026-05-06 08:55 38.56647 25.01457 36070 ft 406 kts 340°
2026-05-06 08:55 38.62028 24.99200 36071 ft 406 kts 340°
2026-05-06 08:56 38.67370 24.96958 36077 ft 406 kts 340°
2026-05-06 08:56 38.72695 24.94719 36074 ft 404 kts 340°
2026-05-06 08:57 38.78024 24.92476 36071 ft 405 kts 340°
2026-05-06 08:57 38.83392 24.90208 36070 ft 405 kts 340°
2026-05-06 08:58 38.88752 24.87945 36070 ft 406 kts 340°
2026-05-06 08:58 38.94088 24.85686 36072 ft 405 kts 340°
2026-05-06 08:59 38.99423 24.83424 36070 ft 404 kts 340°
2026-05-06 08:59 39.04744 24.81164 36066 ft 405 kts 340°
2026-05-06 09:00 39.10104 24.78885 36068 ft 405 kts 340°
2026-05-06 09:00 39.15438 24.76623 36067 ft 405 kts 340°
2026-05-06 09:01 39.20786 24.74352 36068 ft 405 kts 340°
2026-05-06 09:01 39.26118 24.72079 36066 ft 404 kts 340°
2026-05-06 09:02 39.31433 24.69805 36066 ft 403 kts 340°
2026-05-06 09:02 39.36761 24.67522 36069 ft 404 kts 340°
2026-05-06 09:03 39.42079 24.65241 36070 ft 404 kts 340°
2026-05-06 09:03 39.47450 24.62930 36075 ft 405 kts 340°
2026-05-06 09:04 39.52771 24.60638 36079 ft 404 kts 340°
2026-05-06 09:04 39.58094 24.58343 36081 ft 405 kts 340°
2026-05-06 09:05 39.63442 24.56032 36080 ft 405 kts 340°
2026-05-06 09:05 39.68773 24.53724 36077 ft 405 kts 340°
2026-05-06 09:06 39.74107 24.51411 36076 ft 404 kts 340°
2026-05-06 09:06 39.79438 24.49096 36080 ft 404 kts 340°
2026-05-06 09:07 39.84760 24.46785 36085 ft 404 kts 340°
2026-05-06 09:07 39.90099 24.44468 36082 ft 403 kts 340°
2026-05-06 09:08 39.95382 24.42166 36073 ft 404 kts 341°
2026-05-06 09:08 40.00721 24.39835 36068 ft 404 kts 340°
2026-05-06 09:09 40.06073 24.37492 36069 ft 404 kts 340°
2026-05-06 09:09 40.11359 24.35176 36069 ft 405 kts 340°
2026-05-06 09:10 40.16714 24.32815 36077 ft 404 kts 340°
2026-05-06 09:10 40.22039 24.30460 36075 ft 404 kts 340°
2026-05-06 09:11 40.27348 24.28113 36079 ft 404 kts 340°
2026-05-06 09:11 40.32663 24.25764 36076 ft 405 kts 340°
2026-05-06 09:12 40.38010 24.23399 36074 ft 406 kts 340°
2026-05-06 09:12 40.43328 24.21044 36068 ft 406 kts 340°
2026-05-06 09:13 40.48696 24.18662 36064 ft 406 kts 340°
2026-05-06 09:13 40.54033 24.16289 36060 ft 405 kts 340°
2026-05-06 09:14 40.59385 24.13905 36058 ft 405 kts 340°
2026-05-06 09:14 40.64702 24.11534 36057 ft 405 kts 340°
2026-05-06 09:15 40.70046 24.09146 36056 ft 405 kts 340°
2026-05-06 09:15 40.75353 24.06771 36056 ft 404 kts 340°
2026-05-06 09:16 40.80698 24.04375 36060 ft 405 kts 340°
2026-05-06 09:16 40.86019 24.01987 36062 ft 404 kts 340°
2026-05-06 09:17 40.91355 23.99585 35735 ft 405 kts 340°
2026-05-06 09:17 40.93990 23.98399 35494 ft 402 kts 340°
2026-05-06 09:17 40.96647 23.97203 35253 ft 400 kts 340°
2026-05-06 09:17 40.99247 23.96030 35012 ft 397 kts 340°
2026-05-06 09:18 41.01879 23.94842 34772 ft 395 kts 340°
2026-05-06 09:18 41.04462 23.93675 34531 ft 395 kts 340°
2026-05-06 09:18 41.07045 23.92506 34288 ft 395 kts 340°
2026-05-06 09:18 41.09665 23.91322 34016 ft 396 kts 340°
2026-05-06 09:19 41.12277 23.90143 33749 ft 397 kts 340°
2026-05-06 09:19 41.14888 23.88968 33481 ft 398 kts 340°
2026-05-06 09:19 41.17543 23.87769 33213 ft 399 kts 340°
2026-05-06 09:19 41.20174 23.86577 32784 ft 401 kts 340°
2026-05-06 09:20 41.22811 23.85382 32107 ft 404 kts 340°
2026-05-06 09:20 41.25454 23.84180 31357 ft 405 kts 340°
2026-05-06 09:20 41.28106 23.82973 30543 ft 407 kts 340°
2026-05-06 09:20 41.30777 23.81757 29674 ft 410 kts 340°
2026-05-06 09:21 41.33485 23.80522 28823 ft 412 kts 340°
2026-05-06 09:21 41.36179 23.79304 28290 ft 412 kts 341°
2026-05-06 09:21 41.38963 23.78322 27665 ft 412 kts 346°
2026-05-06 09:21 41.41807 23.77697 26725 ft 417 kts 352°
2026-05-06 09:22 41.44682 23.77445 25787 ft 421 kts 356°
2026-05-06 09:22 41.47615 23.77396 25051 ft 420 kts 358°
2026-05-06 09:22 41.50493 23.77387 24361 ft 417 kts 358°
2026-05-06 09:22 41.53387 23.77383 23689 ft 414 kts 358°
2026-05-06 09:23 41.56236 23.77381 23026 ft 411 kts 358°
2026-05-06 09:23 41.59084 23.77376 22370 ft 409 kts 358°
2026-05-06 09:23 41.61928 23.77373 21723 ft 406 kts 359°
2026-05-06 09:23 41.64750 23.77367 21085 ft 403 kts 359°
2026-05-06 09:24 41.67523 23.77359 20492 ft 399 kts 359°
2026-05-06 09:24 41.70297 23.77352 20173 ft 397 kts 359°
2026-05-06 09:24 41.73060 23.77342 20123 ft 399 kts 359°
2026-05-06 09:24 41.75835 23.77332 20120 ft 399 kts 359°
2026-05-06 09:25 41.78600 23.77323 20118 ft 399 kts 359°
2026-05-06 09:25 41.81365 23.77314 20115 ft 399 kts 359°
2026-05-06 09:25 41.84184 23.77304 20071 ft 395 kts 359°
2026-05-06 09:25 41.86887 23.77295 19629 ft 392 kts 359°
2026-05-06 09:26 41.89623 23.77284 18915 ft 391 kts 359°
2026-05-06 09:26 41.92324 23.77272 18252 ft 390 kts 359°
2026-05-06 09:26 41.95041 23.77261 17638 ft 387 kts 359°
2026-05-06 09:26 41.97700 23.77254 17043 ft 384 kts 359°
2026-05-06 09:27 42.00389 23.77247 16445 ft 382 kts 359°
2026-05-06 09:27 42.03031 23.77240 15842 ft 379 kts 359°
2026-05-06 09:27 42.05668 23.77233 15253 ft 377 kts 359°
2026-05-06 09:27 42.08278 23.77227 14663 ft 374 kts 359°
2026-05-06 09:28 42.10877 23.77221 14080 ft 372 kts 359°
2026-05-06 09:28 42.13448 23.77214 13499 ft 370 kts 360°
2026-05-06 09:28 42.16037 23.77209 12915 ft 367 kts 360°
2026-05-06 09:28 42.18552 23.77203 12395 ft 364 kts 359°
2026-05-06 09:29 42.21077 23.77196 12134 ft 363 kts 359°
2026-05-06 09:29 42.23616 23.77189 12105 ft 363 kts 360°
2026-05-06 09:29 42.26155 23.77182 12099 ft 364 kts 360°
2026-05-06 09:29 42.28673 23.77175 12095 ft 364 kts 360°
2026-05-06 09:30 42.31208 23.77168 11881 ft 358 kts 360°
2026-05-06 09:30 42.33691 23.77125 11266 ft 358 kts 355°
2026-05-06 09:30 42.36120 23.76541 10656 ft 356 kts 346°
2026-05-06 09:30 42.38505 23.75684 10078 ft 355 kts 345°
2026-05-06 09:31 42.40876 23.74818 9496 ft 353 kts 345°
2026-05-06 09:31 42.43259 23.73979 8885 ft 352 kts 346°
2026-05-06 09:31 42.45619 23.73179 8322 ft 349 kts 346°
2026-05-06 09:31 42.47982 23.72396 7937 ft 346 kts 347°
2026-05-06 09:32 42.50283 23.71643 7452 ft 342 kts 347°
2026-05-06 09:32 42.52586 23.70894 7022 ft 336 kts 347°
2026-05-06 09:32 42.54840 23.70166 6603 ft 331 kts 347°
2026-05-06 09:32 42.57065 23.69447 6194 ft 326 kts 347°
2026-05-06 09:33 42.59262 23.68737 5793 ft 320 kts 347°
2026-05-06 09:33 42.61435 23.68033 5422 ft 314 kts 347°
2026-05-06 09:33 42.63501 23.67364 5229 ft 302 kts 347°
2026-05-06 09:33 42.65502 23.66640 5028 ft 292 kts 339°
2026-05-06 09:34 42.67089 23.65059 4756 ft 277 kts 306°
2026-05-06 09:34 42.67864 23.62761 4495 ft 259 kts 284°
2026-05-06 09:34 42.68277 23.60460 4237 ft 246 kts 283°
2026-05-06 09:34 42.68584 23.58240 4016 ft 233 kts 279°
2026-05-06 09:35 42.68785 23.56143 3673 ft 218 kts 276°
2026-05-06 09:35 42.68910 23.54140 3313 ft 203 kts 275°
2026-05-06 09:35 42.69008 23.52331 3082 ft 183 kts 275°
2026-05-06 09:35 42.69104 23.50666 2802 ft 169 kts 275°
2026-05-06 09:36 42.69197 23.49132 2507 ft 158 kts 275°
2026-05-06 09:36 42.69283 23.47721 2294 ft 144 kts 275°
2026-05-06 09:36 42.69364 23.46368 2122 ft 143 kts 275°
2026-05-06 09:36 42.69440 23.45017 1946 ft 143 kts 275°
2026-05-06 09:37 42.69530 23.43671 1776 ft 141 kts 276°
2026-05-06 09:37 42.69601 23.42471 1760 ft 110 kts 276°
2026-05-06 09:37 42.69599 23.41621 1760 ft 64 kts 244°
2026-05-06 09:37 42.69488 23.41214 1760 ft 38 kts 270°
2026-05-06 09:38 42.69505 23.40867 1760 ft 34 kts 275°
2026-05-06 09:38 42.69524 23.40564 1760 ft 23 kts 273°
2026-05-06 09:38 42.69421 23.40453 1760 ft 20 kts 196°
2026-05-06 09:38 42.69287 23.40397 1760 ft 20 kts 200°
2026-05-06 09:39 42.69162 23.40356 1760 ft 16 kts 170°
2026-05-06 09:39 42.69111 23.40471 1761 ft 14 kts 107°
2026-05-06 09:39 42.69084 23.40607 1761 ft 15 kts 105°
2026-05-06 09:39 42.69051 23.40658 1761 ft 6 kts 196°
2026-05-06 09:40 42.69015 23.40641 1761 ft 4 kts 197°
2026-05-06 09:40 42.69005 23.40637 1761 ft 0 kts 197°